Tracking 30995 objects as of 5-Jul-2025
HD Live streaming from Space Station
objects crossing your sky now

COSMOS 1771 FUEL CORE

Track COSMOS 1771 FUEL CORE now!
10-day predictions


NORAD ID: 17035
Int'l Code: 1986-062C
Perigee: 920.6 km
Apogee: 975.9 km
Inclination: 65.0 °
Period: 103.9 minutes
Semi major axis: 7319 km
RCS: 0.1808 m2 (medium)
Launch date: August 20, 1986
Source: Commonwealth of Independent States (former USSR) (CIS)
Launch site: TYURATAM MISSILE AND SPACE COMPLEX (TTMTR)

Note: This is SATELLITE DEBRIS
Your satellite tracking list
IRIDIUM 33 DEB
Track 1 satellite(s)




NASA's NSSDC Master Catalog

Two Line Element Set (TLE):
1 17035U 86062C   25186.57650913 -.00000089  00000-0 -13708-6 0  9990
2 17035  64.9946 297.3894 0037786 349.5126  98.0364 13.86442504960562
Source of the keplerian elements: AFSPC